AD8BW Weather Reports


time (UTC)temp
F
wind
direction
speed
knots
gust
knots
rain 1hr
in
rain 24hr
in
rain mn
in
humidity
%
barometer
mb
20260510102035 39 320 0.0 0.0 0.00 0.14 0.00 73 1013.8
20260510101032 39 320 0.0 0.0 0.00 0.14 0.00 74 1013.6
20260510100033 39 320 0.0 0.0 0.00 0.14 0.00 75 1013.5
20260510095033 39 320 0.0 0.0 0.00 0.14 0.00 75 1013.3
20260510094031 39 320 0.0 0.0 0.00 0.14 0.00 75 1013.1
20260510093033 40 320 0.0 0.0 0.00 0.14 0.00 75 1013.1
20260510092034 40 320 0.0 0.0 0.00 0.14 0.00 74 1013.0
20260510091029 41 320 0.0 0.0 0.00 0.14 0.00 72 1012.7
20260510090032 41 320 0.0 0.0 0.00 0.14 0.00 71 1012.6
20260510085029 41 320 0.0 1.7 0.00 0.14 0.00 71 1012.4
20260510084031 42 320 0.0 1.7 0.00 0.14 0.00 71 1012.3
20260510083029 42 320 0.0 1.7 0.00 0.14 0.00 70 1012.1
20260510082030 42 315 0.0 0.0 0.00 0.14 0.00 70 1011.9
20260510081031 43 315 0.0 3.5 0.00 0.14 0.00 69 1011.7
20260510080033 43 321 1.7 3.5 0.00 0.14 0.00 70 1011.6
20260510075026 42 322 0.0 3.5 0.00 0.14 0.00 69 1011.4
20260510074026 43 329 0.0 1.7 0.00 0.14 0.00 70 1011.3
20260510073030 43 329 0.0 0.0 0.00 0.14 0.00 71 1011.1
20260510072026 43 329 0.0 1.7 0.00 0.14 0.00 68 1011.1
20260510071026 44 329 0.0 1.7 0.00 0.14 0.00 68 1010.9
20260510070024 44 329 0.0 1.7 0.00 0.14 0.00 68 1010.7
20260510065028 45 329 0.0 3.5 0.00 0.14 0.00 67 1010.6
20260510064022 45 323 1.7 3.5 0.00 0.14 0.00 66 1010.5
20260510063025 46 325 1.7 4.3 0.00 0.14 0.00 66 1010.3
20260510062025 46 329 1.7 4.3 0.00 0.14 0.00 66 1010.2
20260510061023 47 325 1.7 4.3 0.00 0.14 0.00 64 1010.1
20260510060023 47 336 3.5 6.1 0.00 0.14 0.00 62 1010.0
20260510055017 48 341 3.5 9.6 0.00 0.14 0.00 63 1009.8
20260510054015 47 340 1.7 6.1 0.00 0.14 0.00 64 1009.8
20260510053016 47 331 0.0 0.0 0.00 0.14 0.00 66 1009.7
20260510052015 47 331 0.0 0.0 0.00 0.14 0.00 65 1009.5
20260510051015 48 331 0.0 0.0 0.00 0.14 0.00 64 1009.4
20260510050017 48 331 0.0 0.0 0.00 0.14 0.00 63 1009.1
20260510045014 49 331 0.0 0.0 0.00 0.14 0.00 61 1009.1
20260510044016 50 331 0.0 1.7 0.00 0.14 0.00 60 1008.9
20260510043024 50 331 0.0 3.5 0.00 0.14 0.00 60 1008.8
20260510042016 51 331 1.7 3.5 0.00 0.14 0.00 59 1008.6
20260510041016 51 328 1.7 3.5 0.00 0.14 0.00 59 1008.4
20260510040014 52 330 1.7 3.5 0.00 0.14 0.00 58 1008.3
20260510035011 52 331 0.0 0.0 0.00 0.14 0.14 58 1008.2
20260510034010 52 329 1.7 4.3 0.00 0.14 0.14 58 1008.0
20260510033011 53 338 1.7 4.3 0.00 0.14 0.14 58 1008.0
20260510032011 54 335 3.5 4.3 0.00 0.14 0.14 58 1007.8
20260510031011 55 327 1.7 7.8 0.00 0.14 0.14 56 1007.8
20260510030010 56 333 1.7 4.3 0.00 0.14 0.14 54 1007.5
20260510025007 56 336 3.5 7.8 0.00 0.14 0.14 52 1007.2
20260510024007 57 317 3.5 7.8 0.00 0.14 0.14 52 1007.1
20260510023005 57 349 3.5 7.8 0.00 0.14 0.14 51 1007.0
20260510022003 58 343 1.7 6.1 0.00 0.14 0.14 50 1006.7
20260510021004 58 323 3.5 7.8 0.00 0.14 0.14 50 1006.5
20260510020004 58 333 3.5 6.1 0.00 0.14 0.14 50 1006.2
20260510015008 58 282 3.5 9.6 0.00 0.14 0.14 49 1006.0
20260510014006 58 19 4.3 10.4 0.00 0.14 0.14 49 1005.7
20260510013009 59 348 4.3 12.2 0.00 0.14 0.14 48 1005.2
20260510012002 59 355 1.7 9.6 0.00 0.14 0.14 53 1004.8
20260510011003 58 310 0.0 3.5 0.00 0.14 0.14 61 1004.5
20260510010004 58 321 0.0 1.7 0.00 0.14 0.14 65 1004.1
20260510005003 59 321 0.0 1.7 0.00 0.14 0.14 59 1004.1
20260510004003 60 321 0.0 3.5 0.00 0.14 0.14 55 1003.9
20260510003001 61 332 1.7 4.3 0.00 0.14 0.14 52 1003.8
20260510002002 61 336 0.0 3.5 0.00 0.14 0.14 51 1003.5
20260510001003 62 336 1.7 6.1 0.00 0.14 0.14 50 1003.4
20260510000001 62 311 1.7 6.1 0.00 0.14 0.14 49 1003.3
20260509235006 62 278 1.7 4.3 0.00 0.14 0.14 49 1003.1
20260509234001 63 309 3.5 9.6 0.00 0.14 0.14 47 1003.1
20260509233004 63 313 3.5 12.2 0.00 0.14 0.14 46 1003.0
20260509232002 64 326 4.3 12.2 0.00 0.14 0.14 45 1002.9
20260509231002 65 234 3.5 10.4 0.00 0.14 0.14 44 1002.8
20260509230004 65 227 4.3 12.2 0.00 0.14 0.14 43 1002.7
20260509225003 65 350 4.3 13.9 0.00 0.14 0.14 41 1002.5
20260509224002 66 292 4.3 23.5 0.00 0.14 0.14 40 1002.3
20260509222958 66 279 4.3 12.2 0.00 0.14 0.14 42 1002.0
20260509221957 66 276 4.3 12.2 0.00 0.14 0.14 42 1001.7
20260509220958 66 333 3.5 12.2 0.00 0.14 0.14 42 1001.6
20260509215957 66 267 4.3 12.2 0.00 0.14 0.14 42 1001.5
20260509214955 65 209 3.5 9.6 0.00 0.14 0.14 44 1001.4
20260509213957 66 285 4.3 13.9 0.00 0.14 0.14 43 1001.2
20260509212954 66 278 4.3 15.6 0.00 0.14 0.14 43 1001.3
20260509211951 67 249 3.5 12.2 0.00 0.14 0.14 43 1001.3
20260509210957 66 242 4.3 13.9 0.00 0.14 0.14 43 1001.2
20260509205956 65 0 4.3 15.6 0.00 0.14 0.14 43 1001.2
20260509204954 65 285 4.3 15.6 0.00 0.14 0.14 46 1001.2
20260509203953 65 227 3.5 10.4 0.00 0.14 0.14 46 1001.2
20260509202956 64 265 3.5 17.4 0.00 0.14 0.14 46 1001.5
20260509201954 64 250 3.5 12.2 0.00 0.14 0.14 50 1001.8
20260509200951 64 263 4.3 17.4 0.00 0.14 0.14 49 1001.9
20260509195951 63 0 3.5 19.1 0.00 0.14 0.14 51 1001.9
20260509194955 64 355 3.5 10.4 0.00 0.14 0.14 56 1001.9
20260509193954 63 233 3.5 7.8 0.00 0.14 0.14 61 1001.7
20260509192951 62 347 1.7 7.8 0.06 0.14 0.14 71 1001.7
20260509191952 61 216 1.7 6.1 0.14 0.14 0.14 80 1002.0
20260509190954 60 175 1.7 7.8 0.14 0.14 0.14 82 1002.0
20260509185952 59 234 1.7 7.8 0.14 0.14 0.14 85 1002.0
20260509184954 57 203 0.0 3.5 0.14 0.14 0.14 89 1002.0
20260509183951 54 222 1.7 6.1 0.14 0.14 0.14 84 1001.7
20260509183002 58 244 6.1 19.1 0.07 0.07 0.08 71 1002.4
20260509181949 65 334 3.5 23.5 0.00 0.00 0.00 54 1001.5
20260509180949 66 184 4.3 13.9 0.00 0.00 0.00 50 1000.6
20260509175946 66 200 4.3 17.4 0.00 0.00 0.00 50 1000.6
20260509174951 66 144 4.3 15.6 0.00 0.00 0.00 51 1000.5
20260509173948 67 267 4.3 19.1 0.00 0.00 0.00 52 1000.7
20260509172946 67 178 4.3 12.2 0.00 0.00 0.00 53 1000.8
20260509171948 67 205 6.1 23.5 0.00 0.00 0.00 53 1000.9
20260509170950 67 240 6.1 17.4 0.00 0.00 0.00 52 1000.8
20260509165946 67 206 7.8 23.5 0.00 0.00 0.00 53 1000.9
20260509164947 66 194 6.1 20.0 0.00 0.00 0.00 54 1001.0
20260509163947 65 255 4.3 12.2 0.00 0.00 0.00 57 1001.0
20260509162951 65 161 6.1 15.6 0.00 0.00 0.00 62 1001.2
20260509161949 64 203 3.5 9.6 0.00 0.00 0.00 64 1001.3
20260509160947 63 200 4.3 15.6 0.00 0.00 0.00 65 1001.5
20260509155946 62 163 4.3 13.9 0.00 0.00 0.00 66 1001.6
20260509154946 62 159 3.5 12.2 0.00 0.00 0.00 65 1001.6
20260509153950 61 181 4.3 12.2 0.00 0.00 0.00 70 1001.7
20260509152944 60 167 4.3 10.4 0.00 0.00 0.00 71 1001.8
20260509151944 59 247 4.3 10.4 0.00 0.00 0.00 74 1001.9
20260509150943 59 148 3.5 9.6 0.00 0.00 0.00 74 1002.0
20260509145941 59 153 3.5 7.8 0.00 0.00 0.00 78 1002.1
20260509144942 57 149 3.5 7.8 0.00 0.00 0.00 82 1002.4
20260509143943 55 166 1.7 6.1 0.00 0.00 0.00 85 1002.4
20260509142940 55 153 0.0 3.5 0.00 0.00 0.00 87 1002.7
20260509141940 54 245 0.0 1.7 0.00 0.00 0.00 88 1003.0
20260509140942 54 153 3.5 9.6 0.00 0.00 0.00 87 1003.2
20260509135943 53 175 4.3 10.4 0.00 0.00 0.00 87 1002.6
20260509134941 53 190 4.3 12.2 0.00 0.00 0.00 88 1002.8
20260509133945 53 223 4.3 9.6 0.00 0.00 0.00 88 1003.0
20260509132936 53 225 3.5 13.9 0.00 0.00 0.00 89 1003.3
20260509131937 53 211 3.5 12.2 0.00 0.00 0.00 89 1003.3
20260509130940 53 157 4.3 10.4 0.00 0.00 0.00 89 1003.4
20260509125935 53 226 4.3 10.4 0.00 0.00 0.00 89 1003.4
20260509124934 53 123 4.3 9.6 0.00 0.00 0.00 91 1003.3
20260509123934 53 139 4.3 9.6 0.00 0.00 0.00 92 1003.4
20260509122933 52 178 1.7 6.1 0.00 0.00 0.00 94 1003.5
20260509121933 52 192 1.7 6.1 0.00 0.00 0.00 95 1003.4
20260509120933 51 157 1.7 4.3 0.00 0.00 0.00 95 1003.5
20260509115933 50 194 1.7 7.8 0.00 0.00 0.00 95 1003.5
20260509114940 49 182 0.0 6.1 0.00 0.00 0.00 95 1003.4
20260509113934 49 165 0.0 6.1 0.00 0.00 0.00 95 1003.5
20260509112935 49 172 1.7 9.6 0.00 0.00 0.00 95 1003.6
20260509111934 48 186 0.0 4.3 0.00 0.00 0.00 95 1003.8
20260509110934 47 181 0.0 4.3 0.00 0.00 0.00 95 1003.8
20260509105934 46 185 0.0 1.7 0.00 0.00 0.00 95 1003.6
20260509104932 45 212 0.0 1.7 0.00 0.00 0.00 94 1003.8
20260509103931 44 212 0.0 0.0 0.00 0.00 0.00 95 1003.8
20260509102934 44 212 0.0 1.7 0.00 0.00 0.00 95 1003.8